GFLYD EGLC-EGAA

Flight info

Callsign GFLYD
Flight time 0h 55m
Altitude 40000
Route BPK UN601 LESTA UP6 RODOL UM65 TENSO L603 BELOX DCT REMSI DCT UVPOK M147 ROBOP M146 IPSET P6 BELZU
Aircraft C750/M-SBDE3FGHRWXY/S

Departure

Time 2026-05-04 19:24
Airport London City Airport (EGLC)

Arrival

Time 2026-05-04 20:20
Airport Belfast International Airport (EGAA)
Time Latitude Longitude Altitude Speed Heading
2026-05-04 18:55 51.50499 0.04058 21 ft 0 kts 237°
2026-05-04 19:19 51.50500 0.04055 20 ft 0 kts 273°
2026-05-04 19:19 51.50517 0.04051 22 ft 6 kts 17°
2026-05-04 19:19 51.50523 0.04089 22 ft 9 kts 91°
2026-05-04 19:20 51.50514 0.04187 22 ft 8 kts 108°
2026-05-04 19:20 51.50502 0.04261 20 ft 6 kts 95°
2026-05-04 19:20 51.50500 0.04323 20 ft 5 kts 92°
2026-05-04 19:20 51.50490 0.04403 23 ft 8 kts 105°
2026-05-04 19:21 51.50494 0.04430 20 ft 0 kts 68°
2026-05-04 19:23 51.50494 0.04431 20 ft 1 kts 68°
2026-05-04 19:23 51.50514 0.04439 21 ft 5 kts 360°
2026-05-04 19:23 51.50557 0.04484 20 ft 7 kts 85°
2026-05-04 19:23 51.50557 0.04491 20 ft 3 kts 90°
2026-05-04 19:24 51.50546 0.04982 23 ft 101 kts 95°
2026-05-04 19:24 51.50496 0.06449 294 ft 137 kts 91°
2026-05-04 19:24 51.50454 0.07953 1069 ft 135 kts 91°
2026-05-04 19:24 51.50399 0.09506 1673 ft 148 kts 90°
2026-05-04 19:25 51.50343 0.11281 2165 ft 170 kts 90°
2026-05-04 19:25 51.50353 0.13300 2543 ft 194 kts 76°
2026-05-04 19:25 51.51136 0.15059 2945 ft 194 kts 40°
2026-05-04 19:25 51.52387 0.15990 2974 ft 200 kts 11°
2026-05-04 19:26 51.53761 0.15751 2984 ft 203 kts 342°
2026-05-04 19:26 51.54881 0.14376 2981 ft 208 kts 311°
2026-05-04 19:26 51.55659 0.12395 3020 ft 210 kts 304°
2026-05-04 19:26 51.56420 0.10387 3006 ft 211 kts 305°
2026-05-04 19:27 51.57209 0.08384 3013 ft 214 kts 305°
2026-05-04 19:27 51.58039 0.06427 2988 ft 210 kts 314°
2026-05-04 19:27 51.59298 0.05042 3026 ft 237 kts 333°
2026-05-04 19:27 51.60784 0.03596 3024 ft 253 kts 330°
2026-05-04 19:28 51.62273 0.02065 3018 ft 255 kts 330°
2026-05-04 19:28 51.63764 0.00563 3018 ft 256 kts 331°
2026-05-04 19:28 51.65329 -0.00986 3790 ft 260 kts 330°
2026-05-04 19:28 51.66837 -0.02487 5133 ft 257 kts 328°
2026-05-04 19:29 51.68382 -0.04042 5922 ft 268 kts 327°
2026-05-04 19:29 51.69980 -0.05658 6018 ft 270 kts 327°
2026-05-04 19:29 51.71649 -0.07015 5980 ft 270 kts 342°
2026-05-04 19:29 51.73536 -0.07598 6599 ft 276 kts 351°
2026-05-04 19:30 51.75412 -0.08002 7906 ft 272 kts 351°
2026-05-04 19:30 51.77320 -0.08394 8919 ft 280 kts 351°
2026-05-04 19:30 51.79176 -0.08771 9898 ft 285 kts 351°
2026-05-04 19:30 51.80500 -0.09042 10384 ft 293 kts 351°
2026-05-04 19:31 51.82610 -0.09485 10664 ft 319 kts 351°
2026-05-04 19:31 51.84911 -0.09969 10779 ft 347 kts 351°
2026-05-04 19:31 51.87333 -0.10480 11469 ft 351 kts 351°
2026-05-04 19:31 51.89760 -0.10991 12256 ft 354 kts 351°
2026-05-04 19:32 51.92209 -0.11510 12981 ft 358 kts 351°
2026-05-04 19:32 51.94698 -0.12039 13721 ft 362 kts 351°
2026-05-04 19:32 51.97205 -0.12593 14356 ft 366 kts 351°
2026-05-04 19:32 51.99747 -0.13170 14955 ft 371 kts 351°
2026-05-04 19:33 52.02323 -0.13751 15554 ft 376 kts 351°
2026-05-04 19:33 52.04929 -0.14342 16168 ft 381 kts 351°
2026-05-04 19:33 52.07572 -0.14944 16840 ft 384 kts 351°
2026-05-04 19:33 52.10236 -0.15547 17490 ft 389 kts 351°
2026-05-04 19:34 52.12936 -0.16226 18097 ft 394 kts 346°
2026-05-04 19:34 52.15372 -0.18116 18624 ft 395 kts 322°
2026-05-04 19:34 52.17400 -0.21110 19334 ft 394 kts 313°
2026-05-04 19:34 52.19343 -0.24277 19987 ft 398 kts 313°
2026-05-04 19:35 52.21389 -0.27347 20641 ft 402 kts 316°
2026-05-04 19:35 52.23509 -0.30360 21284 ft 406 kts 316°
2026-05-04 19:35 52.25605 -0.33466 21928 ft 409 kts 314°
2026-05-04 19:35 52.27685 -0.36664 22561 ft 412 kts 314°
2026-05-04 19:36 52.29794 -0.39848 23271 ft 414 kts 314°
2026-05-04 19:36 52.31932 -0.43009 23925 ft 415 kts 314°
2026-05-04 19:36 52.34077 -0.46218 24424 ft 419 kts 314°
2026-05-04 19:36 52.36219 -0.49468 24934 ft 422 kts 314°
2026-05-04 19:37 52.38345 -0.52681 25433 ft 426 kts 314°
2026-05-04 19:37 52.40541 -0.55982 25944 ft 429 kts 314°
2026-05-04 19:37 52.42744 -0.59304 26442 ft 433 kts 314°
2026-05-04 19:37 52.44931 -0.62621 26942 ft 436 kts 315°
2026-05-04 19:38 52.47161 -0.66005 27446 ft 440 kts 315°
2026-05-04 19:38 52.49427 -0.69441 27954 ft 444 kts 315°
2026-05-04 19:38 52.51696 -0.72888 28463 ft 447 kts 315°
2026-05-04 19:38 52.53460 -0.75575 28851 ft 450 kts 315°
2026-05-04 19:40 52.55436 -0.78588 29274 ft 454 kts 315°
2026-05-04 19:40 52.57756 -0.82130 29756 ft 458 kts 315°
2026-05-04 19:40 52.60100 -0.85710 30212 ft 461 kts 315°
2026-05-04 19:41 52.62476 -0.89345 30625 ft 465 kts 315°
2026-05-04 19:41 52.64852 -0.92989 31056 ft 467 kts 316°
2026-05-04 19:41 52.67223 -0.96630 31697 ft 464 kts 316°
2026-05-04 19:41 52.69583 -1.00258 32333 ft 462 kts 316°
2026-05-04 19:42 52.71941 -1.03892 32875 ft 463 kts 316°
2026-05-04 19:42 52.74292 -1.07518 33504 ft 462 kts 316°
2026-05-04 19:42 52.76594 -1.11095 34106 ft 461 kts 317°
2026-05-04 19:42 52.78919 -1.14761 34573 ft 462 kts 317°
2026-05-04 19:43 52.81245 -1.18424 35070 ft 461 kts 317°
2026-05-04 19:43 52.83572 -1.22068 35593 ft 461 kts 317°
2026-05-04 19:43 52.85897 -1.25717 36099 ft 461 kts 316°
2026-05-04 19:43 52.88223 -1.29389 36585 ft 461 kts 316°
2026-05-04 19:44 52.90540 -1.33052 37145 ft 460 kts 316°
2026-05-04 19:44 52.92857 -1.36713 37732 ft 459 kts 316°
2026-05-04 19:44 52.95169 -1.40368 38295 ft 458 kts 316°
2026-05-04 19:44 52.97473 -1.44023 38828 ft 458 kts 315°
2026-05-04 19:45 52.99777 -1.47685 39263 ft 458 kts 315°
2026-05-04 19:45 53.02077 -1.51343 39705 ft 458 kts 315°
2026-05-04 19:45 53.04378 -1.55008 40050 ft 460 kts 315°
2026-05-04 19:45 53.06714 -1.58736 40039 ft 472 kts 315°
2026-05-04 19:46 53.09077 -1.62513 40042 ft 482 kts 315°
2026-05-04 19:46 53.14006 -1.70409 40058 ft 500 kts 315°
2026-05-04 19:47 53.19082 -1.78572 40061 ft 512 kts 315°
2026-05-04 19:47 53.24363 -1.86605 40042 ft 516 kts 322°
2026-05-04 19:48 53.30551 -1.92653 40050 ft 516 kts 332°
2026-05-04 19:48 53.36831 -1.98439 40057 ft 515 kts 328°
2026-05-04 19:49 53.43028 -2.04504 40054 ft 516 kts 330°
2026-05-04 19:49 53.49297 -2.10356 40053 ft 515 kts 329°
2026-05-04 19:50 53.55437 -2.16551 40038 ft 515 kts 324°
2026-05-04 19:50 53.60609 -2.24790 40046 ft 512 kts 307°
2026-05-04 19:51 53.64081 -2.35097 40049 ft 510 kts 291°
2026-05-04 19:51 53.66200 -2.46581 40066 ft 510 kts 285°
2026-05-04 19:52 53.68385 -2.57903 40060 ft 513 kts 291°
2026-05-04 19:52 53.71204 -2.68927 40067 ft 511 kts 292°
2026-05-04 19:53 53.73922 -2.79989 40063 ft 508 kts 292°
2026-05-04 19:53 53.76593 -2.91065 40063 ft 510 kts 292°
2026-05-04 19:54 53.79257 -3.02196 40080 ft 510 kts 292°
2026-05-04 19:54 53.81916 -3.13353 40081 ft 511 kts 291°
2026-05-04 19:55 53.84546 -3.24428 40076 ft 511 kts 291°
2026-05-04 19:55 53.87189 -3.35587 40075 ft 510 kts 291°
2026-05-04 19:56 53.89830 -3.46775 40072 ft 511 kts 291°
2026-05-04 19:56 53.92463 -3.57973 40075 ft 512 kts 291°
2026-05-04 19:57 53.95034 -3.68960 39807 ft 479 kts 291°
2026-05-04 19:57 53.96230 -3.74103 39548 ft 459 kts 291°
2026-05-04 19:57 53.97376 -3.79081 39296 ft 447 kts 291°
2026-05-04 19:57 53.98503 -3.84017 39055 ft 449 kts 291°
2026-05-04 19:58 53.99613 -3.88913 38831 ft 450 kts 291°
2026-05-04 19:58 54.00733 -3.93886 38574 ft 452 kts 291°
2026-05-04 19:58 54.01859 -3.98891 38296 ft 452 kts 291°
2026-05-04 19:58 54.02979 -4.03884 38023 ft 452 kts 291°
2026-05-04 19:59 54.04095 -4.08885 37752 ft 453 kts 291°
2026-05-04 19:59 54.05214 -4.13901 37481 ft 454 kts 291°
2026-05-04 19:59 54.06335 -4.18919 37214 ft 452 kts 291°
2026-05-04 19:59 54.07261 -4.24031 36920 ft 453 kts 283°
2026-05-04 20:00 54.07782 -4.29317 36332 ft 455 kts 278°
2026-05-04 20:00 54.08092 -4.34677 35575 ft 454 kts 276°
2026-05-04 20:00 54.08457 -4.40006 34818 ft 452 kts 282°
2026-05-04 20:00 54.09301 -4.45154 34062 ft 450 kts 291°
2026-05-04 20:01 54.10902 -4.49708 33154 ft 450 kts 309°
2026-05-04 20:01 54.12908 -4.53829 32397 ft 452 kts 311°
2026-05-04 20:01 54.14874 -4.58005 31655 ft 454 kts 307°
2026-05-04 20:01 54.16654 -4.62469 30921 ft 454 kts 303°
2026-05-04 20:02 54.18340 -4.67008 30208 ft 451 kts 303°
2026-05-04 20:02 54.20086 -4.71332 29210 ft 441 kts 306°
2026-05-04 20:02 54.21911 -4.75556 28122 ft 440 kts 307°
2026-05-04 20:02 54.23668 -4.79779 27318 ft 432 kts 304°
2026-05-04 20:03 54.25335 -4.84025 26536 ft 428 kts 304°
2026-05-04 20:03 54.27007 -4.88208 25785 ft 425 kts 305°
2026-05-04 20:03 54.28701 -4.92305 25065 ft 421 kts 305°
2026-05-04 20:03 54.30377 -4.96400 24351 ft 417 kts 305°
2026-05-04 20:04 54.32015 -5.00496 23646 ft 413 kts 304°
2026-05-04 20:04 54.33637 -5.04550 22827 ft 410 kts 304°
2026-05-04 20:04 54.35252 -5.08542 22027 ft 406 kts 305°
2026-05-04 20:04 54.36826 -5.12437 21262 ft 400 kts 304°
2026-05-04 20:05 54.38417 -5.16406 20494 ft 396 kts 304°
2026-05-04 20:05 54.39945 -5.20229 19773 ft 390 kts 304°
2026-05-04 20:05 54.41465 -5.24027 19053 ft 384 kts 304°
2026-05-04 20:05 54.42967 -5.27783 18341 ft 380 kts 304°
2026-05-04 20:06 54.44459 -5.31522 17529 ft 376 kts 304°
2026-05-04 20:06 54.46059 -5.35024 16705 ft 372 kts 312°
2026-05-04 20:06 54.47849 -5.38195 15938 ft 368 kts 314°
2026-05-04 20:06 54.49631 -5.41286 14897 ft 360 kts 314°
2026-05-04 20:07 54.51320 -5.44439 13577 ft 355 kts 308°
2026-05-04 20:07 54.52338 -5.48236 12256 ft 349 kts 282°
2026-05-04 20:07 54.52351 -5.52334 11359 ft 336 kts 264°
2026-05-04 20:07 54.51963 -5.56160 11097 ft 308 kts 259°
2026-05-04 20:08 54.51510 -5.59826 11106 ft 328 kts 259°
2026-05-04 20:08 54.51019 -5.63722 11090 ft 335 kts 258°
2026-05-04 20:08 54.50518 -5.67665 11086 ft 338 kts 258°
2026-05-04 20:08 54.50014 -5.71632 11085 ft 340 kts 258°
2026-05-04 20:09 54.49509 -5.75552 11064 ft 336 kts 258°
2026-05-04 20:09 54.49011 -5.79395 10526 ft 307 kts 258°
2026-05-04 20:09 54.48569 -5.82782 9946 ft 277 kts 258°
2026-05-04 20:09 54.48142 -5.86016 9007 ft 278 kts 258°
2026-05-04 20:10 54.47715 -5.89208 8428 ft 273 kts 258°
2026-05-04 20:10 54.47291 -5.92343 8067 ft 262 kts 258°
2026-05-04 20:10 54.46873 -5.95413 8077 ft 265 kts 258°
2026-05-04 20:10 54.46450 -5.98518 8089 ft 267 kts 258°
2026-05-04 20:11 54.46024 -6.01637 8092 ft 268 kts 258°
2026-05-04 20:11 54.45594 -6.04772 8092 ft 269 kts 258°
2026-05-04 20:11 54.45165 -6.07904 8090 ft 270 kts 258°
2026-05-04 20:11 54.44734 -6.11042 8102 ft 270 kts 258°
2026-05-04 20:12 54.44303 -6.14182 8101 ft 270 kts 258°
2026-05-04 20:12 54.43872 -6.17318 8101 ft 270 kts 258°
2026-05-04 20:12 54.43441 -6.20448 8101 ft 270 kts 258°
2026-05-04 20:12 54.43363 -6.23579 8033 ft 266 kts 284°
2026-05-04 20:13 54.44222 -6.26367 8096 ft 266 kts 305°
2026-05-04 20:13 54.45361 -6.28890 8108 ft 267 kts 308°
2026-05-04 20:13 54.46506 -6.31354 7885 ft 259 kts 308°
2026-05-04 20:13 54.47602 -6.33684 7743 ft 239 kts 308°
2026-05-04 20:14 54.48654 -6.35915 6857 ft 248 kts 308°
2026-05-04 20:14 54.49779 -6.38315 5925 ft 259 kts 308°
2026-05-04 20:14 54.50854 -6.40625 5654 ft 223 kts 308°
2026-05-04 20:14 54.51742 -6.42541 4655 ft 193 kts 308°
2026-05-04 20:15 54.52572 -6.44348 3521 ft 191 kts 308°
2026-05-04 20:15 54.53383 -6.46139 3200 ft 191 kts 308°
2026-05-04 20:15 54.54376 -6.47611 3249 ft 199 kts 339°
2026-05-04 20:15 54.55719 -6.47501 3038 ft 201 kts 20°
2026-05-04 20:16 54.56910 -6.46252 2992 ft 203 kts 39°
2026-05-04 20:16 54.57489 -6.44051 2986 ft 209 kts 82°
2026-05-04 20:16 54.57667 -6.41649 2889 ft 195 kts 76°
2026-05-04 20:16 54.58120 -6.39361 2508 ft 205 kts 62°
2026-05-04 20:17 54.58849 -6.37467 2498 ft 176 kts 47°
2026-05-04 20:17 54.59592 -6.35934 2490 ft 166 kts 45°
2026-05-04 20:17 54.60346 -6.34428 2375 ft 166 kts 45°
2026-05-04 20:17 54.61099 -6.32936 2086 ft 164 kts 44°
2026-05-04 20:18 54.61576 -6.31989 1899 ft 151 kts 44°
2026-05-04 20:18 54.62221 -6.30703 1560 ft 136 kts 44°
2026-05-04 20:18 54.62840 -6.29485 1149 ft 132 kts 45°
2026-05-04 20:18 54.63410 -6.28333 880 ft 123 kts 47°
2026-05-04 20:19 54.63977 -6.27161 740 ft 130 kts 48°
2026-05-04 20:19 54.64533 -6.25919 628 ft 131 kts 54°
2026-05-04 20:19 54.64943 -6.24584 455 ft 123 kts 63°
2026-05-04 20:19 54.65304 -6.23227 293 ft 125 kts 63°
2026-05-04 20:20 54.65637 -6.22003 269 ft 88 kts 65°
2026-05-04 20:20 54.65794 -6.21411 268 ft 21 kts 65°
2026-05-04 20:20 54.65874 -6.21335 268 ft 12 kts 347°
2026-05-04 20:20 54.65944 -6.21386 268 ft 10 kts 346°
2026-05-04 20:21 54.65996 -6.21349 268 ft 8 kts 57°
2026-05-04 20:21 54.66019 -6.21261 268 ft 8 kts 66°
2026-05-04 20:21 54.66065 -6.21093 268 ft 8 kts 64°
2026-05-04 20:22 54.66087 -6.21013 268 ft 7 kts 64°
2026-05-04 20:22 54.66109 -6.20933 268 ft 7 kts 65°
2026-05-04 20:22 54.66131 -6.20877 268 ft 4 kts 22°
2026-05-04 20:22 54.66175 -6.20901 268 ft 9 kts 334°
2026-05-04 20:23 54.66201 -6.20917 268 ft 0 kts 23°